ITY0680 LIRF-SAEZ

Flight info

Callsign ITY0680
Flight time N/A
Altitude 19000
Route ESINO M126 QUENN/N0487F310 DCT CAR/N0489F300 DCT DOPEL/N0488F310 UG729 KAWKA UG14 CSO/N0492F300 UG859 GHA UG864 TIO/N0491F320 UG864 BRENA UA854 ARDAR UR975 ANITI UA302 PIVSA/N0493F340 UA302 TURUP DCT SEROD DCT KODOS UL206 KUGRO/N0486F360 UL206 VRI UZ44 ADA UM400 BITAK UN857 DOKPU/N0477F380 UN857 NELOX UM534 DADUT UN741 PAPIX PAPIX7B
Aircraft A339/H-SADE1E2E3GHIJ3J5M1P2RWXY/LB2D1

Departure

Time N/A
Airport Rome–Fiumicino Leonardo da Vinci International Airport (LIRF)

Arrival

Time 2026-05-04 12:06
Airport Ezeiza International Airport - Ministro Pistarini (SAEZ)
Time Latitude Longitude Altitude Speed Heading
2026-05-04 07:54 -15.04714 -36.51802 39015 ft 456 kts 214°
2026-05-04 07:55 -15.10049 -36.55354 39019 ft 456 kts 214°
2026-05-04 07:55 -15.15387 -36.58912 39020 ft 456 kts 215°
2026-05-04 07:56 -15.20722 -36.62471 39020 ft 455 kts 214°
2026-05-04 07:56 -15.26066 -36.66037 39021 ft 456 kts 215°
2026-05-04 07:57 -15.31413 -36.69606 39024 ft 455 kts 215°
2026-05-04 07:57 -15.36748 -36.73171 39023 ft 456 kts 215°
2026-05-04 07:58 -15.42089 -36.76741 39025 ft 455 kts 215°
2026-05-04 07:58 -15.47417 -36.80304 39023 ft 455 kts 215°
2026-05-04 07:59 -15.52726 -36.83858 39027 ft 455 kts 215°
2026-05-04 07:59 -15.58059 -36.87430 39024 ft 455 kts 215°
2026-05-04 08:00 -15.63377 -36.90994 39029 ft 455 kts 215°
2026-05-04 08:02 -15.84670 -37.05288 39029 ft 455 kts 215°
2026-05-04 08:02 -15.89996 -37.08866 39029 ft 455 kts 216°
2026-05-04 08:03 -15.95298 -37.12432 39023 ft 456 kts 216°
2026-05-04 08:03 -16.00613 -37.16011 39024 ft 455 kts 216°
2026-05-04 08:04 -16.05931 -37.19595 39020 ft 455 kts 216°
2026-05-04 08:04 -16.11246 -37.23176 39023 ft 454 kts 216°
2026-05-04 08:05 -16.16553 -37.26754 39022 ft 454 kts 216°
2026-05-04 08:05 -16.21864 -37.30341 39022 ft 454 kts 216°
2026-05-04 08:06 -16.27165 -37.33920 39026 ft 454 kts 216°
2026-05-04 08:06 -16.32486 -37.37517 39028 ft 455 kts 216°
2026-05-04 08:08 -16.53705 -37.51879 39028 ft 455 kts 216°
2026-05-04 08:11 -16.77589 -37.68093 39027 ft 454 kts 217°
2026-05-04 08:11 -16.85525 -37.73491 39028 ft 455 kts 217°
2026-05-04 08:12 -16.90826 -37.77100 39025 ft 455 kts 217°
2026-05-04 08:12 -16.96133 -37.80716 39027 ft 456 kts 217°
2026-05-04 08:13 -17.01446 -37.84337 39026 ft 456 kts 217°
2026-05-04 08:13 -17.06758 -37.87960 39025 ft 456 kts 217°
2026-05-04 08:14 -17.12081 -37.91594 39025 ft 456 kts 217°
2026-05-04 08:16 -17.33259 -38.06076 39025 ft 454 kts 217°
2026-05-04 08:16 -17.38569 -38.09714 39026 ft 455 kts 217°
2026-05-04 08:17 -17.43907 -38.13374 39027 ft 456 kts 217°
2026-05-04 08:17 -17.49190 -38.16999 39028 ft 456 kts 217°
2026-05-04 08:19 -17.70427 -38.31590 39038 ft 456 kts 217°
2026-05-04 08:20 -17.75711 -38.35229 39039 ft 455 kts 217°
2026-05-04 08:20 -17.81012 -38.38881 39037 ft 455 kts 217°
2026-05-04 08:21 -17.86338 -38.42551 39041 ft 455 kts 217°
2026-05-04 08:21 -17.91640 -38.46210 39042 ft 455 kts 217°
2026-05-04 08:22 -17.96984 -38.49900 39044 ft 455 kts 217°
2026-05-04 08:24 -18.18291 -38.64639 39054 ft 455 kts 218°
2026-05-04 08:24 -18.23617 -38.68330 39061 ft 454 kts 218°
2026-05-04 08:25 -18.28934 -38.72017 39064 ft 453 kts 218°
2026-05-04 08:25 -18.34237 -38.75695 39067 ft 453 kts 218°
2026-05-04 08:27 -18.55402 -38.90414 39077 ft 453 kts 218°
2026-05-04 08:28 -18.60691 -38.94098 39077 ft 452 kts 218°
2026-05-04 08:28 -18.65956 -38.97768 39080 ft 451 kts 218°
2026-05-04 08:29 -18.71237 -39.01452 39081 ft 452 kts 218°
2026-05-04 08:31 -18.92199 -39.16105 39088 ft 450 kts 218°
2026-05-04 08:33 -19.13102 -39.30763 39092 ft 450 kts 219°
2026-05-04 08:35 -19.33931 -39.45411 39098 ft 448 kts 219°
2026-05-04 08:35 -19.39150 -39.49090 39099 ft 451 kts 219°
2026-05-04 08:37 -19.57500 -39.62043 39104 ft 452 kts 219°
2026-05-04 08:38 -19.62714 -39.65729 39108 ft 451 kts 219°
2026-05-04 08:38 -19.67958 -39.69441 39106 ft 451 kts 220°
2026-05-04 08:40 -19.88876 -39.84276 39107 ft 451 kts 220°
2026-05-04 08:41 -19.94101 -39.87988 39108 ft 450 kts 220°
2026-05-04 08:41 -19.99309 -39.91692 39108 ft 450 kts 220°
2026-05-04 08:42 -20.04510 -39.95394 39109 ft 450 kts 220°
2026-05-04 08:42 -20.09729 -39.99111 39110 ft 450 kts 220°
2026-05-04 08:43 -20.14940 -40.02826 39114 ft 450 kts 220°
2026-05-04 08:43 -20.20167 -40.06556 39118 ft 449 kts 220°
2026-05-04 08:44 -20.25346 -40.10255 39124 ft 449 kts 220°
2026-05-04 08:46 -20.46118 -40.25115 39137 ft 449 kts 220°
2026-05-04 08:46 -20.51283 -40.28818 39137 ft 449 kts 220°
2026-05-04 08:47 -20.56484 -40.32550 39138 ft 448 kts 220°
2026-05-04 08:47 -20.61660 -40.36266 39142 ft 448 kts 220°
2026-05-04 08:48 -20.66841 -40.39990 39141 ft 448 kts 220°
2026-05-04 08:48 -20.72009 -40.43704 39146 ft 448 kts 220°
2026-05-04 08:49 -20.77205 -40.47442 39150 ft 447 kts 220°
2026-05-04 08:50 -20.95017 -40.60750 39166 ft 445 kts 224°
2026-05-04 08:51 -20.99431 -40.64367 39166 ft 444 kts 224°
2026-05-04 08:51 -21.02964 -40.67260 39167 ft 444 kts 224°
2026-05-04 08:52 -21.07885 -40.71288 39165 ft 444 kts 224°
2026-05-04 08:52 -21.12781 -40.75301 39172 ft 444 kts 224°
2026-05-04 08:54 -21.32352 -40.91399 39162 ft 442 kts 224°
2026-05-04 08:55 -21.37270 -40.95451 39161 ft 442 kts 224°
2026-05-04 08:55 -21.42165 -40.99493 39163 ft 442 kts 225°
2026-05-04 09:01 -21.92983 -41.41819 39179 ft 436 kts 225°
2026-05-04 09:01 -21.97741 -41.45830 39180 ft 435 kts 226°
2026-05-04 09:02 -22.02504 -41.49853 39181 ft 434 kts 226°
2026-05-04 09:02 -22.07260 -41.53880 39186 ft 434 kts 226°
2026-05-04 09:03 -22.11983 -41.57882 39189 ft 432 kts 226°
2026-05-04 09:03 -22.16716 -41.61892 39195 ft 431 kts 226°
2026-05-04 09:04 -22.21420 -41.65879 39202 ft 431 kts 226°
2026-05-04 09:04 -22.26153 -41.69894 39198 ft 430 kts 226°
2026-05-04 09:05 -22.30836 -41.73868 39196 ft 429 kts 226°
2026-05-04 09:05 -22.35666 -41.77735 39195 ft 433 kts 222°
2026-05-04 09:06 -22.40788 -41.81290 39193 ft 434 kts 221°
2026-05-04 09:08 -22.61285 -41.95332 39181 ft 434 kts 221°
2026-05-04 09:08 -22.66385 -41.98835 39179 ft 435 kts 221°
2026-05-04 09:09 -22.71428 -42.02424 39179 ft 433 kts 222°
2026-05-04 09:09 -22.76219 -42.06300 39182 ft 424 kts 228°
2026-05-04 09:10 -22.80427 -42.10653 39179 ft 417 kts 234°
2026-05-04 09:10 -22.84072 -42.15449 39180 ft 411 kts 240°
2026-05-04 09:11 -22.87164 -42.20638 39175 ft 408 kts 245°
2026-05-04 09:11 -22.90028 -42.25919 39177 ft 408 kts 245°
2026-05-04 09:12 -22.92891 -42.31226 39174 ft 408 kts 245°
2026-05-04 09:14 -23.04284 -42.52454 39171 ft 407 kts 245°
2026-05-04 09:14 -23.07132 -42.57782 39169 ft 407 kts 245°
2026-05-04 09:15 -23.09965 -42.63084 39170 ft 407 kts 245°
2026-05-04 09:15 -23.12782 -42.68358 39172 ft 406 kts 245°
2026-05-04 09:17 -23.25485 -42.92203 39169 ft 406 kts 245°
2026-05-04 09:18 -23.28290 -42.97516 39169 ft 406 kts 245°
2026-05-04 09:18 -23.31079 -43.02831 39168 ft 407 kts 245°
2026-05-04 09:19 -23.33888 -43.08186 39166 ft 407 kts 245°
2026-05-04 09:19 -23.36704 -43.13549 39167 ft 408 kts 245°
2026-05-04 09:20 -23.39492 -43.18864 39165 ft 408 kts 245°
2026-05-04 09:20 -23.42308 -43.24233 39163 ft 408 kts 245°
2026-05-04 09:21 -23.45119 -43.29597 39165 ft 409 kts 245°
2026-05-04 09:21 -23.47918 -43.34947 39164 ft 409 kts 245°
2026-05-04 09:22 -23.50727 -43.40321 39163 ft 409 kts 245°
2026-05-04 09:22 -23.53537 -43.45697 39164 ft 409 kts 245°
2026-05-04 09:23 -23.56346 -43.51076 39162 ft 409 kts 245°
2026-05-04 09:23 -23.59160 -43.56453 39160 ft 410 kts 244°
2026-05-04 09:25 -23.71992 -43.73505 39167 ft 422 kts 231°
2026-05-04 09:25 -23.74083 -43.75754 39168 ft 423 kts 231°
2026-05-04 09:26 -23.78295 -43.80283 39172 ft 424 kts 231°
2026-05-04 09:26 -23.82475 -43.84776 39174 ft 425 kts 231°
2026-05-04 09:27 -23.86685 -43.89304 39172 ft 426 kts 231°
2026-05-04 09:27 -23.90915 -43.93859 39172 ft 426 kts 231°
2026-05-04 09:28 -23.95133 -43.98399 39172 ft 427 kts 231°
2026-05-04 09:28 -23.99354 -44.02951 39168 ft 427 kts 231°
2026-05-04 09:29 -24.03584 -44.07523 39169 ft 427 kts 231°
2026-05-04 09:29 -24.07809 -44.12103 39167 ft 427 kts 231°
2026-05-04 09:30 -24.12006 -44.16653 39170 ft 427 kts 231°
2026-05-04 09:30 -24.16231 -44.21234 39171 ft 426 kts 231°
2026-05-04 09:31 -24.20438 -44.25798 39171 ft 426 kts 231°
2026-05-04 09:31 -24.24628 -44.30349 39174 ft 425 kts 231°
2026-05-04 09:32 -24.28840 -44.34928 39172 ft 425 kts 231°
2026-05-04 09:34 -24.45548 -44.53122 39171 ft 423 kts 231°
2026-05-04 09:34 -24.49717 -44.57678 39171 ft 422 kts 231°
2026-05-04 09:35 -24.53831 -44.62270 39173 ft 422 kts 231°
2026-05-04 09:35 -24.57954 -44.66891 39176 ft 422 kts 232°
2026-05-04 09:37 -24.74359 -44.85279 39168 ft 420 kts 231°
2026-05-04 09:38 -24.78444 -44.89866 39171 ft 419 kts 231°
2026-05-04 09:38 -24.82510 -44.94434 39171 ft 419 kts 231°
2026-05-04 09:39 -24.86581 -44.99011 39169 ft 420 kts 231°
2026-05-04 09:39 -24.90661 -45.03608 39166 ft 420 kts 231°
2026-05-04 09:40 -24.94735 -45.08200 39168 ft 419 kts 231°
2026-05-04 09:40 -24.98814 -45.12803 39167 ft 418 kts 231°
2026-05-04 09:42 -25.15030 -45.31146 39164 ft 418 kts 231°
2026-05-04 09:43 -25.19079 -45.35736 39167 ft 418 kts 231°
2026-05-04 09:43 -25.23115 -45.40319 39166 ft 418 kts 231°
2026-05-04 09:44 -25.26264 -45.43897 39166 ft 418 kts 231°
2026-05-04 09:46 -25.41176 -45.60874 39167 ft 417 kts 231°
2026-05-04 09:46 -25.45212 -45.65481 39166 ft 418 kts 231°
2026-05-04 09:47 -25.49255 -45.70099 39170 ft 417 kts 231°
2026-05-04 09:49 -25.65324 -45.88495 39159 ft 415 kts 231°
2026-05-04 09:51 -25.79348 -46.04655 39157 ft 414 kts 231°
2026-05-04 09:51 -25.83329 -46.09245 39163 ft 414 kts 231°
2026-05-04 09:52 -25.87312 -46.13845 39165 ft 414 kts 231°
2026-05-04 09:52 -25.91297 -46.18450 39166 ft 414 kts 231°
2026-05-04 09:53 -25.95307 -46.23089 39167 ft 415 kts 231°
2026-05-04 09:53 -25.99282 -46.27692 39169 ft 414 kts 231°
2026-05-04 09:54 -26.03271 -46.32317 39169 ft 414 kts 230°
2026-05-04 09:54 -26.07266 -46.36951 39173 ft 414 kts 230°
2026-05-04 09:55 -26.11237 -46.41564 39172 ft 413 kts 230°
2026-05-04 09:55 -26.15233 -46.46208 39176 ft 414 kts 230°
2026-05-04 09:56 -26.19200 -46.50825 39166 ft 414 kts 230°
2026-05-04 09:56 -26.23181 -46.55465 39183 ft 414 kts 230°
2026-05-04 09:57 -26.27169 -46.60112 39176 ft 413 kts 230°
2026-05-04 09:57 -26.31122 -46.64726 39171 ft 413 kts 230°
2026-05-04 09:58 -26.35100 -46.69369 39177 ft 413 kts 230°
2026-05-04 09:58 -26.39066 -46.74010 39179 ft 413 kts 230°
2026-05-04 10:00 -26.54865 -46.92554 39176 ft 412 kts 230°
2026-05-04 10:04 -26.82400 -47.25229 39180 ft 413 kts 230°
2026-05-04 10:04 -26.86313 -47.29903 39165 ft 412 kts 230°
2026-05-04 10:05 -26.90225 -47.34584 39189 ft 412 kts 230°
2026-05-04 10:05 -26.94147 -47.39297 39169 ft 412 kts 230°
2026-05-04 10:06 -26.98055 -47.43990 39172 ft 413 kts 230°
2026-05-04 10:06 -27.01975 -47.48701 39158 ft 412 kts 230°
2026-05-04 10:08 -27.15680 -47.65199 39154 ft 413 kts 230°
2026-05-04 10:08 -27.19584 -47.69910 39155 ft 412 kts 230°
2026-05-04 10:09 -27.23492 -47.74627 39147 ft 412 kts 230°
2026-05-04 10:09 -27.27401 -47.79352 39152 ft 413 kts 230°
2026-05-04 10:10 -27.31307 -47.84078 39155 ft 412 kts 230°
2026-05-04 10:10 -27.35214 -47.88806 39148 ft 413 kts 230°
2026-05-04 10:11 -27.39105 -47.93527 39149 ft 412 kts 230°
2026-05-04 10:11 -27.42983 -47.98284 39137 ft 412 kts 231°
2026-05-04 10:12 -27.46848 -48.03038 39141 ft 412 kts 230°
2026-05-04 10:12 -27.50704 -48.07773 39141 ft 412 kts 230°
2026-05-04 10:13 -27.54581 -48.12537 39146 ft 411 kts 230°
2026-05-04 10:13 -27.58442 -48.17287 39147 ft 411 kts 230°
2026-05-04 10:14 -27.62306 -48.22042 39148 ft 411 kts 230°
2026-05-04 10:16 -27.77720 -48.41102 39149 ft 411 kts 230°
2026-05-04 10:16 -27.81573 -48.45878 39144 ft 411 kts 230°
2026-05-04 10:17 -27.85427 -48.50659 39141 ft 411 kts 230°
2026-05-04 10:19 -28.00753 -48.69721 39140 ft 409 kts 230°
2026-05-04 10:19 -28.04579 -48.74488 39153 ft 409 kts 230°
2026-05-04 10:20 -28.08376 -48.79225 39147 ft 408 kts 230°
2026-05-04 10:20 -28.12207 -48.84013 39151 ft 408 kts 230°
2026-05-04 10:21 -28.16000 -48.88755 39146 ft 408 kts 230°
2026-05-04 10:21 -28.19813 -48.93527 39158 ft 408 kts 230°
2026-05-04 10:22 -28.25514 -49.00686 39151 ft 408 kts 230°
2026-05-04 10:23 -28.29312 -49.05439 39145 ft 408 kts 230°
2026-05-04 10:25 -28.44678 -49.24513 39149 ft 409 kts 230°
2026-05-04 10:25 -28.48512 -49.29295 39140 ft 410 kts 230°
2026-05-04 10:26 -28.52358 -49.34104 39144 ft 410 kts 230°
2026-05-04 10:26 -28.56187 -49.38890 39135 ft 409 kts 230°
2026-05-04 10:27 -28.60016 -49.43681 39130 ft 410 kts 230°
2026-05-04 10:27 -28.63858 -49.48488 39143 ft 410 kts 230°
2026-05-04 10:28 -28.67678 -49.53273 39124 ft 410 kts 230°
2026-05-04 10:28 -28.71505 -49.58072 39133 ft 411 kts 230°
2026-05-04 10:29 -28.75337 -49.62884 39128 ft 411 kts 230°
2026-05-04 10:29 -28.79188 -49.67726 39135 ft 411 kts 230°
2026-05-04 10:30 -28.83040 -49.72566 39121 ft 412 kts 231°
2026-05-04 10:30 -28.86855 -49.77370 39131 ft 411 kts 230°
2026-05-04 10:31 -28.90697 -49.82206 39137 ft 412 kts 230°
2026-05-04 10:32 -29.04546 -49.98756 39144 ft 412 kts 229°
2026-05-04 10:33 -29.08516 -50.03508 39144 ft 413 kts 229°
2026-05-04 10:33 -29.12455 -50.08232 39139 ft 412 kts 229°
2026-05-04 10:34 -29.16408 -50.12978 39138 ft 412 kts 229°
2026-05-04 10:34 -29.20362 -50.17733 39135 ft 412 kts 229°
2026-05-04 10:35 -29.24289 -50.22459 39139 ft 412 kts 229°
2026-05-04 10:35 -29.28237 -50.27215 39143 ft 412 kts 229°
2026-05-04 10:36 -29.32191 -50.31984 39137 ft 412 kts 229°
2026-05-04 10:36 -29.36120 -50.36729 39139 ft 412 kts 229°
2026-05-04 10:37 -29.40066 -50.41498 39137 ft 413 kts 229°
2026-05-04 10:37 -29.44019 -50.46282 39130 ft 413 kts 229°
2026-05-04 10:39 -29.57680 -50.63106 39109 ft 412 kts 230°
2026-05-04 10:40 -29.61528 -50.68005 39105 ft 412 kts 231°
2026-05-04 10:40 -29.65364 -50.72879 39096 ft 412 kts 231°
2026-05-04 10:41 -29.69199 -50.77754 39085 ft 412 kts 231°
2026-05-04 10:41 -29.73048 -50.82647 39088 ft 411 kts 231°
2026-05-04 10:42 -29.76857 -50.87498 39086 ft 411 kts 231°
2026-05-04 10:42 -29.80691 -50.92388 39081 ft 411 kts 231°
2026-05-04 10:43 -29.84518 -50.97265 39070 ft 411 kts 231°
2026-05-04 10:45 -29.98885 -51.17540 39068 ft 408 kts 240°
2026-05-04 10:45 -30.01592 -51.23286 39071 ft 407 kts 245°
2026-05-04 10:46 -30.03825 -51.29254 39073 ft 407 kts 248°
2026-05-04 10:46 -30.05908 -51.35330 39064 ft 408 kts 248°
2026-05-04 10:47 -30.07972 -51.41391 39064 ft 408 kts 248°
2026-05-04 10:47 -30.10037 -51.47477 39070 ft 407 kts 249°
2026-05-04 10:49 -30.18228 -51.71756 39064 ft 407 kts 249°
2026-05-04 10:50 -30.20272 -51.77846 39063 ft 407 kts 249°
2026-05-04 10:52 -30.28438 -52.02246 39055 ft 407 kts 249°
2026-05-04 10:52 -30.30484 -52.08366 39060 ft 408 kts 249°
2026-05-04 10:54 -30.38620 -52.32745 39059 ft 406 kts 249°
2026-05-04 10:56 -30.46633 -52.57061 39062 ft 405 kts 249°
2026-05-04 10:57 -30.48640 -52.63169 39061 ft 405 kts 249°
2026-05-04 10:57 -30.50635 -52.69270 39064 ft 405 kts 249°
2026-05-04 10:58 -30.52620 -52.75359 39057 ft 405 kts 249°
2026-05-04 10:58 -30.54598 -52.81430 39063 ft 404 kts 249°
2026-05-04 10:59 -30.56586 -52.87529 39065 ft 405 kts 249°
2026-05-04 10:59 -30.58574 -52.93638 39063 ft 404 kts 249°
2026-05-04 11:00 -30.60556 -52.99729 39059 ft 405 kts 249°
2026-05-04 11:02 -30.68446 -53.24133 39055 ft 405 kts 249°
2026-05-04 11:05 -30.83511 -53.69856 39061 ft 406 kts 249°
2026-05-04 11:06 -30.85541 -53.75969 39045 ft 406 kts 249°
2026-05-04 11:06 -30.87564 -53.82068 39060 ft 405 kts 249°
2026-05-04 11:10 -31.05354 -54.22420 39051 ft 408 kts 228°
2026-05-04 11:12 -31.21978 -54.40439 39045 ft 408 kts 226°
2026-05-04 11:12 -31.26128 -54.44925 39041 ft 407 kts 226°
2026-05-04 11:13 -31.30301 -54.49437 39042 ft 407 kts 226°
2026-05-04 11:13 -31.34445 -54.53921 39045 ft 407 kts 226°
2026-05-04 11:16 -31.55170 -54.76335 39046 ft 405 kts 227°
2026-05-04 11:16 -31.59288 -54.80779 39035 ft 405 kts 227°
2026-05-04 11:17 -31.63446 -54.85268 39034 ft 405 kts 227°
2026-05-04 11:19 -31.79964 -55.03160 39043 ft 403 kts 227°
2026-05-04 11:19 -31.84090 -55.07641 39044 ft 403 kts 227°
2026-05-04 11:20 -31.88210 -55.12123 39033 ft 403 kts 227°
2026-05-04 11:20 -31.92330 -55.16611 39033 ft 402 kts 227°
2026-05-04 11:22 -32.08735 -55.34540 39043 ft 403 kts 227°
2026-05-04 11:23 -32.12830 -55.39030 39047 ft 403 kts 227°
2026-05-04 11:25 -32.27187 -55.54814 39043 ft 402 kts 227°
2026-05-04 11:25 -32.31267 -55.59312 39043 ft 402 kts 227°
2026-05-04 11:27 -32.49692 -55.79702 39038 ft 404 kts 228°
2026-05-04 11:28 -32.53810 -55.84273 39029 ft 405 kts 228°
2026-05-04 11:28 -32.57890 -55.88810 39035 ft 403 kts 228°
2026-05-04 11:29 -32.61974 -55.93357 39030 ft 404 kts 228°
2026-05-04 11:29 -32.66064 -55.97916 39028 ft 404 kts 228°
2026-05-04 11:33 -32.94708 -56.29996 39036 ft 404 kts 228°
2026-05-04 11:33 -32.98796 -56.34602 39037 ft 404 kts 228°
2026-05-04 11:34 -33.02867 -56.39230 39028 ft 404 kts 228°
2026-05-04 11:34 -33.06938 -56.43853 39029 ft 405 kts 228°
2026-05-04 11:35 -33.11020 -56.48487 39028 ft 405 kts 228°
2026-05-04 11:35 -33.15124 -56.53151 39030 ft 406 kts 228°
2026-05-04 11:36 -33.19201 -56.57798 39021 ft 405 kts 228°
2026-05-04 11:36 -33.23276 -56.62460 39033 ft 405 kts 228°
2026-05-04 11:37 -33.27360 -56.67130 39030 ft 405 kts 229°
2026-05-04 11:37 -33.31422 -56.71774 39027 ft 404 kts 229°
2026-05-04 11:38 -33.35496 -56.76437 39023 ft 404 kts 229°
2026-05-04 11:38 -33.39560 -56.81091 39031 ft 404 kts 229°
2026-05-04 11:39 -33.43613 -56.85743 39029 ft 405 kts 229°
2026-05-04 11:41 -33.55993 -57.03854 39029 ft 401 kts 235°
2026-05-04 11:41 -33.59456 -57.09103 39027 ft 401 kts 235°
2026-05-04 11:42 -33.62921 -57.14352 39023 ft 401 kts 235°
2026-05-04 11:42 -33.66344 -57.19539 38486 ft 398 kts 235°
2026-05-04 11:42 -33.68076 -57.22169 37636 ft 401 kts 235°
2026-05-04 11:43 -33.69795 -57.24779 36690 ft 406 kts 235°
2026-05-04 11:43 -33.71563 -57.27466 35743 ft 410 kts 235°
2026-05-04 11:43 -33.73323 -57.30145 34802 ft 413 kts 235°
2026-05-04 11:43 -33.75095 -57.32843 33822 ft 418 kts 235°
2026-05-04 11:44 -33.76893 -57.35583 32865 ft 422 kts 235°
2026-05-04 11:44 -33.78702 -57.38342 31890 ft 426 kts 235°
2026-05-04 11:44 -33.80541 -57.41147 30881 ft 430 kts 235°
2026-05-04 11:44 -33.82374 -57.43949 29877 ft 433 kts 235°
2026-05-04 11:45 -33.84233 -57.46791 28920 ft 435 kts 234°
2026-05-04 11:45 -33.86102 -57.49643 28260 ft 430 kts 234°
2026-05-04 11:45 -33.87933 -57.52441 27644 ft 425 kts 234°
2026-05-04 11:45 -33.89737 -57.55197 27000 ft 422 kts 234°
2026-05-04 11:46 -33.91556 -57.57981 26409 ft 417 kts 235°
2026-05-04 11:46 -33.93341 -57.60716 25848 ft 412 kts 234°
2026-05-04 11:46 -33.95100 -57.63411 25309 ft 407 kts 235°
2026-05-04 11:46 -33.96826 -57.66061 24802 ft 402 kts 235°
2026-05-04 11:47 -33.98542 -57.68695 24291 ft 398 kts 235°
2026-05-04 11:47 -34.00245 -57.71313 23810 ft 394 kts 236°
2026-05-04 11:47 -34.01925 -57.73898 23281 ft 391 kts 236°
2026-05-04 11:47 -34.03612 -57.76495 22736 ft 389 kts 236°
2026-05-04 11:48 -34.05250 -57.79018 22185 ft 388 kts 236°
2026-05-04 11:48 -34.06917 -57.81589 21619 ft 387 kts 236°
2026-05-04 11:48 -34.08562 -57.84128 21029 ft 386 kts 236°
2026-05-04 11:48 -34.10224 -57.86694 20406 ft 387 kts 236°
2026-05-04 11:49 -34.11887 -57.89266 19751 ft 387 kts 236°
2026-05-04 11:49 -34.13534 -57.91812 19149 ft 387 kts 236°
2026-05-04 11:49 -34.15190 -57.94374 18559 ft 385 kts 236°
2026-05-04 11:49 -34.16832 -57.96916 17976 ft 384 kts 236°
2026-05-04 11:50 -34.18459 -57.99440 17432 ft 382 kts 236°
2026-05-04 11:50 -34.20076 -58.01953 16871 ft 381 kts 236°
2026-05-04 11:50 -34.21699 -58.04475 16303 ft 380 kts 235°
2026-05-04 11:50 -34.23324 -58.07002 15767 ft 377 kts 235°
2026-05-04 11:51 -34.24920 -58.09482 15243 ft 375 kts 235°
2026-05-04 11:51 -34.26519 -58.11970 14666 ft 374 kts 234°
2026-05-04 11:51 -34.28108 -58.14443 14082 ft 373 kts 234°
2026-05-04 11:51 -34.29685 -58.16900 13586 ft 370 kts 234°
2026-05-04 11:52 -34.31241 -58.19321 12988 ft 355 kts 234°
2026-05-04 11:52 -34.32740 -58.21651 12540 ft 353 kts 234°
2026-05-04 11:52 -34.34261 -58.24020 12003 ft 354 kts 234°
2026-05-04 11:52 -34.35758 -58.26355 11468 ft 355 kts 234°
2026-05-04 11:53 -34.37269 -58.28717 10920 ft 355 kts 234°
2026-05-04 11:53 -34.38775 -58.31070 10520 ft 351 kts 234°
2026-05-04 11:53 -34.40268 -58.33404 10229 ft 344 kts 234°
2026-05-04 11:53 -34.41707 -58.35651 10028 ft 325 kts 234°
2026-05-04 11:55 -34.50071 -58.48762 9248 ft 275 kts 234°
2026-05-04 11:55 -34.51228 -58.50579 8956 ft 275 kts 235°
2026-05-04 11:56 -34.52404 -58.52425 8664 ft 274 kts 235°
2026-05-04 11:56 -34.53566 -58.54256 8378 ft 274 kts 235°
2026-05-04 11:56 -34.54726 -58.56081 8094 ft 273 kts 236°
2026-05-04 11:56 -34.55885 -58.57905 7808 ft 272 kts 236°
2026-05-04 11:57 -34.57034 -58.59717 7524 ft 272 kts 236°
2026-05-04 11:57 -34.58197 -58.61550 7239 ft 271 kts 236°
2026-05-04 11:57 -34.59329 -58.63338 6963 ft 270 kts 236°
2026-05-04 11:57 -34.60479 -58.65154 6687 ft 269 kts 237°
2026-05-04 11:58 -34.61612 -58.66942 6417 ft 268 kts 237°
2026-05-04 11:58 -34.62757 -58.68755 6141 ft 268 kts 237°
2026-05-04 11:58 -34.63888 -58.70542 5875 ft 267 kts 237°
2026-05-04 11:58 -34.65006 -58.72313 5613 ft 266 kts 237°
2026-05-04 11:59 -34.66139 -58.74104 5348 ft 265 kts 237°
2026-05-04 11:59 -34.67269 -58.75890 5087 ft 264 kts 237°
2026-05-04 11:59 -34.68377 -58.77641 4991 ft 257 kts 237°
2026-05-04 11:59 -34.69442 -58.79322 4984 ft 246 kts 237°
2026-05-04 12:00 -34.70459 -58.80928 4980 ft 234 kts 237°
2026-05-04 12:00 -34.71422 -58.82453 4977 ft 221 kts 237°
2026-05-04 12:00 -34.72337 -58.83902 4976 ft 209 kts 238°
2026-05-04 12:00 -34.73196 -58.85262 4971 ft 198 kts 238°
2026-05-04 12:01 -34.74037 -58.86528 4964 ft 189 kts 226°
2026-05-04 12:01 -34.75256 -58.87075 4949 ft 197 kts 176°
2026-05-04 12:02 -34.77907 -58.77976 3795 ft 211 kts 99°
2026-05-04 12:03 -34.78205 -58.76201 3505 ft 217 kts 100°
2026-05-04 12:03 -34.78519 -58.74399 3208 ft 222 kts 101°
2026-05-04 12:03 -34.78850 -58.72530 2900 ft 227 kts 101°
2026-05-04 12:03 -34.79186 -58.70637 2589 ft 232 kts 100°
2026-05-04 12:04 -34.79528 -58.68706 2275 ft 236 kts 100°
2026-05-04 12:04 -34.79877 -58.66739 1958 ft 241 kts 100°
2026-05-04 12:04 -34.80228 -58.64760 1632 ft 236 kts 100°
2026-05-04 12:04 -34.80567 -58.62857 1288 ft 223 kts 100°
2026-05-04 12:05 -34.80883 -58.61082 1023 ft 209 kts 100°
2026-05-04 12:05 -34.81180 -58.59413 781 ft 196 kts 101°
2026-05-04 12:05 -34.81464 -58.57820 531 ft 187 kts 100°
2026-05-04 12:05 -34.81733 -58.56315 271 ft 179 kts 101°
2026-05-04 12:06 -34.81988 -58.54870 99 ft 167 kts 101°
2026-05-04 12:06 -34.82214 -58.53581 80 ft 140 kts 101°
2026-05-04 12:06 -34.82373 -58.52631 80 ft 90 kts 105°
2026-05-04 12:06 -34.82481 -58.52105 77 ft 37 kts 102°
2026-05-04 12:07 -34.82504 -58.51923 75 ft 19 kts 89°
2026-05-04 12:07 -34.82470 -58.51837 73 ft 9 kts 40°
2026-05-04 12:07 -34.82400 -58.51801 73 ft 11 kts 17°
2026-05-04 12:07 -34.82314 -58.51780 72 ft 12 kts
2026-05-04 12:08 -34.82259 -58.51844 74 ft 11 kts 290°
2026-05-04 12:08 -34.82235 -58.51936 75 ft 11 kts 284°
2026-05-04 12:08 -34.82216 -58.52027 77 ft 11 kts 285°
2026-05-04 12:08 -34.82198 -58.52129 77 ft 13 kts 281°
2026-05-04 12:09 -34.82178 -58.52251 77 ft 16 kts 283°
2026-05-04 12:09 -34.82148 -58.52396 76 ft 19 kts 284°
2026-05-04 12:09 -34.82116 -58.52562 76 ft 20 kts 283°
2026-05-04 12:09 -34.82080 -58.52732 76 ft 20 kts 284°
2026-05-04 12:10 -34.82048 -58.52900 77 ft 20 kts 282°
2026-05-04 12:10 -34.82017 -58.53066 78 ft 19 kts 284°
2026-05-04 12:10 -34.81984 -58.53221 80 ft 18 kts 285°
2026-05-04 12:10 -34.81953 -58.53377 81 ft 18 kts 283°
2026-05-04 12:11 -34.81923 -58.53530 82 ft 18 kts 284°
2026-05-04 12:11 -34.81864 -58.53652 86 ft 16 kts 328°
2026-05-04 12:11 -34.81763 -58.53713 89 ft 16 kts 336°
2026-05-04 12:11 -34.81668 -58.53774 92 ft 14 kts 328°
2026-05-04 12:12 -34.81589 -58.53829 95 ft 7 kts 339°
2026-05-04 12:12 -34.81539 -58.53845 96 ft 7 kts 349°
2026-05-04 12:12 -34.81507 -58.53852 96 ft 4 kts 348°
2026-05-04 12:12 -34.81500 -58.53854 96 ft 0 kts 348°